Location: Rochester
(43.1610°N, 77.6109°W)
Time: 06:25:57
(UTC-05:00)

CUTE 1.7 + AOD 2 - Pass Details

Date: 26 October 2021
Orbit: 592 x 610 km, 97.6° (Epoch: 29 November)

Event Time Altitude Azimuth Distance (km) Brightness Sun altitude
Rises 05:55:41 0° 5° (N) 2,884 ? -19.2°
Reaches altitude 10° 05:57:57 10° 359° (N) 1,974 ? -18.8°
Maximum altitude 06:02:00 42° 288° (WNW) 872 ? -18.1°
Enters shadow 06:02:57 36° 254° (WSW) 966 ? -17.9°
